Starlink 4493

operational
NORAD ID: 53533 Int'l Des: 2022-101 Owner: SPXS Country: US Constellation: starlink
LEOCIRCULAR

Über Starlink 4493

Beschreibung wird geladen...

Live-Position

3D-Globus wird geladen...

Nächste Überflüge

Höhenverlauf

Altitude vs Time

uPlot chart will show altitude changes over time

Zweizeiliger Elementsatz

1 53533U 22101G 25257.40063580 .00000688 00000-0 61316-4 0 9995
2 53533 53.2183 145.5060 0001408 91.4261 268.6892 15.08840113169558
Epoch: 14. Sept. 2025 • Age: 22 hours

Aktueller Status

Höhe 543.2 km
Geschwindigkeit 7.59 km/s
Subsatellitenpunkt -11.72°S, 20.84°E
Startdatum 19. Aug. 2022
Alter 3 years
Typ internet

Technische Details

Klassifizierung Payload
Masse 300.00 kg
Trockenmasse 290.00 kg
Gesamtmasse 300.00 kg
Länge 0.20 m
Durchmesser 2.80 m
Spannweite 9.00 m
Form Box + pan
Hersteller SPXS
Bus-Typ Starlink
Phasenstatus In Orbit
Besitzer/Staat SPXS/US

Große Konstellationen

Loading constellations...